Regional Weather Roundup
Issued by NWS Cleveland, OH

Home | Current Version | Previous Version | Graphics & Text | Print | Product List | Glossary On
Versions: 1 2 3 4 5 6 7 8 9 10 11 12 13 14 15 16 17 18 19 20 21 22 23 24 25 26 27 28 29 30 31 32 33 34 35 36 37 38 39 40 41 42 43 44 45 46 47 48 49 50
000
ASUS41 KCLE 270700
RWRCLE
OHIO REGIONAL WEATHER ROUNDUP
NATIONAL WEATHER SERVICE WILMINGTON, OH
300 AM EDT MON APR 27 2015

NOTE: "FAIR" INDICATES FEW OR NO CLOUDS BELOW 12,000 FEET WITH NO
SIGNIFICANT WEATHER AND/OR OBSTRUCTIONS TO VISIBILITY.

OHZ001>008-015>018-024>027-034-035-043-044-270800-
   NORTHWEST OHIO

CITY           SKY/WX    TMP DP  RH WIND       PRES   REMARKS
DEFIANCE       PTCLDY    44  34  67 E7        29.94F
FINDLAY        CLOUDY    45  32  60 NE7       29.92F
TOLEDO EXPRESS PTCLDY    41  32  70 CALM      29.93F
TOLEDO EXEC    CLOUDY    42  33  70 W3        29.94F
LIMA           CLOUDY    45  34  65 NE5       29.92S
$$

OHZ009>014-019>023-028>033-038-089-270800-
   NORTHEAST OHIO

CITY           SKY/WX    TMP DP  RH WIND       PRES   REMARKS
CLE-HOPKINS    MOCLDY    40  33  76 NW8       29.91F
CLE-LAKEFRONT  CLOUDY    41  34  76 NW13      29.88F
CUY CO. ARPT   NOT AVBL
LORAIN-ELYRIA  CLEAR     36  32  85 NW6       29.90F
ASHTABULA      CLOUDY    39  34  82 CALM      29.85F
AKRON-CANTON   CLEAR     35  28  75 NW6       29.86F
WOOSTER        NOT AVBL
MANSFIELD      CLEAR     34  30  85 NW8       29.90F WCI  27
YOUNGSTOWN     PTCLDY    35  31  85 NW8       29.84S WCI  29
$$

OHZ042-051>053-060>062-070>072-077>081-270800-
  SOUTHWEST OHIO

CITY           SKY/WX    TMP DP  RH WIND       PRES   REMARKS
CINC-COVINGTON MOCLDY    41  34  76 NW3       29.91F
CINC-LUNKEN    CLEAR     37  37 100 CALM      29.93F
HAMILTON       MOCLDY    38  36  92 NW3       29.94R
DAYTON         NOT AVBL
WRIGHT-PAT AFB NOT AVBL
DAYTON GENERAL MOCLDY    41  33  73 CALM      29.90F
WILMINGTON     CLEAR     40  30  67 N5        29.90F
$$

OHZ036-037-039>041-045>050-054>059-063>069-073>076-082>088-270800-
  CENTRAL AND SOUTHEAST OHIO

CITY           SKY/WX    TMP DP  RH WIND       PRES   REMARKS
COLUMBUS       CLEAR     38  32  79 N5        29.90S
OSU AIRPORT    CLEAR     37  29  72 N6        29.90S
BOLTON FIELD   NOT AVBL
RICKENBACK AFB NOT AVBL
NEWARK         CLEAR     36  31  82 CALM      29.89S
MARION         CLOUDY    41  31  67 N6        29.92S
LANCASTER      CLEAR     35  32  88 N3        29.89F
ZANESVILLE     CLEAR     40  29  64 NW3       29.88S
NEW PHILLY     CLEAR     40  31  70 NW5       29.88S
$$


USA.gov is the U.S. government's official web portal to all federal, state and local government web resources and services.